Content
SEND FEEDBACK

Daily
Averages
Monthly
Summary
Mexico

CANCUN, QUINTANA ROO


Home > North America > Mexico > Quintana Roo
Elevation: 9 meters     Latitude: 21 09N     Longitude: 086 49W

WEATHER
 
SELECT A DAY
Number of Records: 167,833;   Date Range: 1/1/95 - 12/21/14
 
SHARE

PRINT THIS DATA

[ ← Previous Day ]
WEATHER ALMANAC - 8 FEBRUARY, 2013
[ Next Day → ]
[ °F ]   °C
Weather ElementAverageHighLow
Temperature24.3 °C29 °C (12:43 pm)19 °C (2:41 am)
Dewpoint20.7 °C22 °C (7:41 am)18 °C (4:43 am)
Humidity81.8 %100 % (2:41 am)66 % (9:43 am)
Barometer1016.3 hPa1017.9 hPa (9:48 pm)1014.2 hPa (2:41 am)
Wind Speed12.1 km/h25.9 km/h (3:45 pm)
Weather ElementAverage
Visibility11.9 km
Wind DirectionESE (117.4 °)

Weather ElementTotal
Precipitation---
Cooling Degree Days5.7 (Base 18.3)
Growing Degree Days14 (Base 10)
Averaged from 23 records on 8 February, 2013
WEATHER CONDITIONS BREAKOUT
WIND DIRECTION BREAKOUT
WEATHER BY HOUR - 8 FEBRUARY, 2013
[ °F ]   °C
Local TimeTemperatureDewpointHumidityBarometerVisibilityWind DirectionWind SpeedGust SpeedPrecipitationEventsConditions
1:40 AM20 °C19 °C94 %1014.6 hPa11.3 kmCalmScattered Clouds
2:41 AM19 °C19 °C100 %1014.2 hPa11.3 kmSE (140°)5.6 km/hPartly Cloudy
3:41 AM20 °C20 °C100 %1014.6 hPa11.3 kmCalmPartly Cloudy
4:43 AM19 °C18 °C94 %1014.9 hPa11.3 kmSE (140°)5.6 km/hPartly Cloudy
5:42 AM20 °C19 °C94 %1014.6 hPa11.3 kmSE (130°)5.6 km/hClear
6:47 AM20 °C19 °C94 %1015.9 hPa11.3 kmSE (140°)5.6 km/hPartly Cloudy
7:41 AM25 °C22 °C83 %1016.3 hPa11.3 kmSSE (150°)11.1 km/hClear
8:43 AM27 °C21 °C70 %1016.6 hPa11.3 kmSE (140°)24.1 km/hClear
9:43 AM28 °C21 °C66 %1017.3 hPa11.3 kmSE (140°)16.7 km/hPartly Cloudy
10:44 AM28 °C21 °C66 %1017.3 hPa11.3 kmSouth (170°)14.8 km/hScattered Clouds
11:45 AM28 °C22 °C70 %1016.9 hPa11.3 kmSE (130°)18.5 km/hMostly Cloudy
12:43 PM29 °C22 °C66 %1016.3 hPa11.3 kmSE (130°)24.1 km/hMostly Cloudy
1:41 PM29 °C22 °C66 %1015.6 hPa11.3 kmESE (120°)22.2 km/hScattered Clouds
2:44 PM28 °C21 °C66 %1015.6 hPa12.9 kmSE (140°)22.2 km/hScattered Clouds
3:45 PM28 °C22 °C70 %1015.2 hPa12.9 kmSE (140°)25.9 km/hPartly Cloudy
4:44 PM27 °C21 °C70 %1015.6 hPa12.9 kmSE (140°)22.2 km/hClear
5:41 PM26 °C22 °C78 %1015.9 hPa12.9 kmSE (140°)14.8 km/hClear
6:44 PM24 °C21 °C83 %1016.3 hPa12.9 kmSE (140°)11.1 km/hClear
7:42 PM23 °C21 °C88 %1017.3 hPa12.9 kmESE (120°)3.7 km/hClear
8:41 PM23 °C21 °C88 %1017.6 hPa12.9 kmESE (120°)3.7 km/hClear
9:48 PM23 °C21 °C88 %1017.9 hPa12.9 kmESE (110°)9.3 km/hClear
10:47 PM22 °C21 °C94 %1017.6 hPa12.9 kmCalmClear
11:46 PM22 °C21 °C94 %1016.6 hPa12.9 kmESE (120°)9.3 km/hClear
Hourly data recorded from MMUN, located 0 kilometers away from Cancun, Quintana Roo







STORIES FROM OUR PARTNERS